Location: Unspecified
(41.1637°N, 24.2901°E)
Time: 11:49:10
(UTC+02:00)

ISS - Pass Details

Date: 13 May 2026
Orbit: 414 x 424 km, 51.6° (Epoch: 12 May)

Event Time Altitude Azimuth Distance (km) Brightness Sun altitude
Rises 23:23:18 0° 309° (NW) 2,355 0.8 -28.9°
Reaches altitude 10° 23:25:52 10° 330° (NNW) 1,492 -0.1 -29.0°
Enters shadow 23:27:26 17° 356° (N) 1,158 -0.8 -29.1°
